owner,sensor,date,latitude,longitude,vertical_datum,mass_concentration_of_oxygen_in_sea_water,qcFlag 
SCCF RECON,ioos:station:SCCF:56:1,2017-02-01T00:00:00Z,26.4645,-82.1044,1.36,9.5,1111122 
SCCF RECON,ioos:station:SCCF:56:1,2017-02-01T01:00:00Z,26.4645,-82.1044,1.324,9.17,1111122 
SCCF RECON,ioos:station:SCCF:56:1,2017-02-01T02:00:00Z,26.4645,-82.1044,1.251,8.77,1111122 
SCCF RECON,ioos:station:SCCF:56:1,2017-02-01T03:00:00Z,26.4645,-82.1044,1.226,8.42,1111122 
SCCF RECON,ioos:station:SCCF:56:1,2017-02-01T04:00:00Z,26.4645,-82.1044,1.292,8.85,1111122 
SCCF RECON,ioos:station:SCCF:56:1,2017-02-01T05:00:00Z,26.4645,-82.1044,1.409,7.95,1111122 
SCCF RECON,ioos:station:SCCF:56:1,2017-02-01T06:00:00Z,26.4645,-82.1044,1.54,8.54,1111122 
SCCF RECON,ioos:station:SCCF:56:1,2017-02-01T07:00:00Z,26.4645,-82.1044,1.63,8.51,1111122 
SCCF RECON,ioos:station:SCCF:56:1,2017-02-01T08:00:00Z,26.4645,-82.1044,1.689,8.59,1111122 
SCCF RECON,ioos:station:SCCF:56:1,2017-02-01T09:00:00Z,26.4645,-82.1044,1.699,8.71,1111122 
SCCF RECON,ioos:station:SCCF:56:1,2017-02-01T10:00:00Z,26.4645,-82.1044,1.64,8.12,1111122 
SCCF RECON,ioos:station:SCCF:56:1,2017-02-01T11:00:00Z,26.4645,-82.1044,1.538,8.14,1111122 
SCCF RECON,ioos:station:SCCF:56:1,2017-02-01T12:00:00Z,26.4645,-82.1044,1.41,7.65,1111122 
SCCF RECON,ioos:station:SCCF:56:1,2017-02-01T13:00:00Z,26.4645,-82.1044,1.338,7.13,1111122 
SCCF RECON,ioos:station:SCCF:56:1,2017-02-01T14:00:00Z,26.4645,-82.1044,1.25,6.89,1111122 
SCCF RECON,ioos:station:SCCF:56:1,2017-02-01T15:00:00Z,26.4645,-82.1044,1.176,6.64,1111122 
SCCF RECON,ioos:station:SCCF:56:1,2017-02-01T16:00:00Z,26.4645,-82.1044,1.188,6.72,1111122 
SCCF RECON,ioos:station:SCCF:56:1,2017-02-01T17:00:00Z,26.4645,-82.1044,1.301,9.05,1111122 
SCCF RECON,ioos:station:SCCF:56:1,2017-02-01T18:00:00Z,26.4645,-82.1044,1.441,10.28,1111122 
SCCF RECON,ioos:station:SCCF:56:1,2017-02-01T19:00:00Z,26.4645,-82.1044,1.543,10.14,1111122 
SCCF RECON,ioos:station:SCCF:56:1,2017-02-01T20:00:00Z,26.4645,-82.1044,1.643,9.86,1111122 
SCCF RECON,ioos:station:SCCF:56:1,2017-02-01T21:00:00Z,26.4645,-82.1044,1.718,9.81,1111122 
SCCF RECON,ioos:station:SCCF:56:1,2017-02-01T22:00:00Z,26.4645,-82.1044,1.74,9.32,1111122 
SCCF RECON,ioos:station:SCCF:56:1,2017-02-01T23:00:00Z,26.4645,-82.1044,1.64,9.34,1111122 
SCCF RECON,ioos:station:SCCF:56:1,2017-02-02T00:00:00Z,26.4645,-82.1044,1.502,9.17,1111122 
SCCF RECON,ioos:station:SCCF:56:1,2017-02-02T01:00:00Z,26.4645,-82.1044,1.4,8.82,1111122 
SCCF RECON,ioos:station:SCCF:56:1,2017-02-02T02:00:00Z,26.4645,-82.1044,1.331,8.4,1111122 
SCCF RECON,ioos:station:SCCF:56:1,2017-02-02T03:00:00Z,26.4645,-82.1044,1.27,8.14,1111122 
SCCF RECON,ioos:station:SCCF:56:1,2017-02-02T04:00:00Z,26.4645,-82.1044,1.24,7.84,1111122 
SCCF RECON,ioos:station:SCCF:56:1,2017-02-02T05:00:00Z,26.4645,-82.1044,1.29,8.16,1111122 
SCCF RECON,ioos:station:SCCF:56:1,2017-02-02T06:00:00Z,26.4645,-82.1044,1.4,6.58,1111122 
SCCF RECON,ioos:station:SCCF:56:1,2017-02-02T07:00:00Z,26.4645,-82.1044,1.51,6.82,1111122 
SCCF RECON,ioos:station:SCCF:56:1,2017-02-02T08:00:00Z,26.4645,-82.1044,1.564,8.06,1111122 
SCCF RECON,ioos:station:SCCF:56:1,2017-02-02T09:00:00Z,26.4645,-82.1044,1.619,8.32,1111122 
SCCF RECON,ioos:station:SCCF:56:1,2017-02-02T10:00:00Z,26.4645,-82.1044,1.631,8.45,1111122 
SCCF RECON,ioos:station:SCCF:56:1,2017-02-02T11:00:00Z,26.4645,-82.1044,1.592,7.93,1111122 
SCCF RECON,ioos:station:SCCF:56:1,2017-02-02T12:00:00Z,26.4645,-82.1044,1.5,7.62,1111122 
SCCF RECON,ioos:station:SCCF:56:1,2017-02-02T13:00:00Z,26.4645,-82.1044,1.4,7.19,1111122 
SCCF RECON,ioos:station:SCCF:56:1,2017-02-02T14:00:00Z,26.4645,-82.1044,1.31,6.48,1111122 
SCCF RECON,ioos:station:SCCF:56:1,2017-02-02T15:00:00Z,26.4645,-82.1044,1.24,6.28,1111122 
SCCF RECON,ioos:station:SCCF:56:1,2017-02-02T16:00:00Z,26.4645,-82.1044,1.203,5.97,1111122 
SCCF RECON,ioos:station:SCCF:56:1,2017-02-02T17:00:00Z,26.4645,-82.1044,1.245,6.59,1111122 
SCCF RECON,ioos:station:SCCF:56:1,2017-02-02T18:00:00Z,26.4645,-82.1044,1.357,9.47,1111122 
SCCF RECON,ioos:station:SCCF:56:1,2017-02-02T19:00:00Z,26.4645,-82.1044,1.48,9.86,1111122 
SCCF RECON,ioos:station:SCCF:56:1,2017-02-02T20:00:00Z,26.4645,-82.1044,1.57,10.01,1111122 
SCCF RECON,ioos:station:SCCF:56:1,2017-02-02T21:00:00Z,26.4645,-82.1044,1.66,9.62,1111122 
SCCF RECON,ioos:station:SCCF:56:1,2017-02-02T22:00:00Z,26.4645,-82.1044,1.708,9.62,1111122 
SCCF RECON,ioos:station:SCCF:56:1,2017-02-02T23:00:00Z,26.4645,-82.1044,1.71,9.08,1111122 
SCCF RECON,ioos:station:SCCF:56:1,2017-02-03T00:00:00Z,26.4645,-82.1044,1.609,9.31,1111122 
SCCF RECON,ioos:station:SCCF:56:1,2017-02-03T01:00:00Z,26.4645,-82.1044,1.49,8.68,1111122 
SCCF RECON,ioos:station:SCCF:56:1,2017-02-03T02:00:00Z,26.4645,-82.1044,1.38,8.21,1111122 
SCCF RECON,ioos:station:SCCF:56:1,2017-02-03T03:00:00Z,26.4645,-82.1044,1.29,7.61,1111122 
SCCF RECON,ioos:station:SCCF:56:1,2017-02-03T04:00:00Z,26.4645,-82.1044,1.218,7.18,1111122 
SCCF RECON,ioos:station:SCCF:56:1,2017-02-03T05:00:00Z,26.4645,-82.1044,1.17,6.83,1111122 
SCCF RECON,ioos:station:SCCF:56:1,2017-02-03T06:00:00Z,26.4645,-82.1044,1.2,6.84,1111122 
SCCF RECON,ioos:station:SCCF:56:1,2017-02-03T07:00:00Z,26.4645,-82.1044,1.29,7.77,1111122 
SCCF RECON,ioos:station:SCCF:56:1,2017-02-03T08:00:00Z,26.4645,-82.1044,1.38,6.72,1111122 
SCCF RECON,ioos:station:SCCF:56:1,2017-02-03T09:00:00Z,26.4645,-82.1044,1.45,6.98,1111122 
SCCF RECON,ioos:station:SCCF:56:1,2017-02-03T10:00:00Z,26.4645,-82.1044,1.527,7.61,1111122 
SCCF RECON,ioos:station:SCCF:56:1,2017-02-03T11:00:00Z,26.4645,-82.1044,1.56,8.0,1111122 
SCCF RECON,ioos:station:SCCF:56:1,2017-02-03T12:00:00Z,26.4645,-82.1044,1.55,7.17,1111122 
SCCF RECON,ioos:station:SCCF:56:1,2017-02-03T13:00:00Z,26.4645,-82.1044,1.48,7.2,1111122 
SCCF RECON,ioos:station:SCCF:56:1,2017-02-03T14:00:00Z,26.4645,-82.1044,1.401,6.92,1111122 
SCCF RECON,ioos:station:SCCF:56:1,2017-02-03T15:00:00Z,26.4645,-82.1044,1.33,6.35,1111122 
SCCF RECON,ioos:station:SCCF:56:1,2017-02-03T16:00:00Z,26.4645,-82.1044,1.29,6.06,1111122 
SCCF RECON,ioos:station:SCCF:56:1,2017-02-03T17:00:00Z,26.4645,-82.1044,1.294,5.94,1111122 
SCCF RECON,ioos:station:SCCF:56:1,2017-02-03T18:00:00Z,26.4645,-82.1044,1.356,9.93,1111122 
SCCF RECON,ioos:station:SCCF:56:1,2017-02-03T19:00:00Z,26.4645,-82.1044,1.45,9.63,1111122 
SCCF RECON,ioos:station:SCCF:56:1,2017-02-03T20:00:00Z,26.4645,-82.1044,1.563,9.67,1111122 
SCCF RECON,ioos:station:SCCF:56:1,2017-02-03T21:00:00Z,26.4645,-82.1044,1.65,9.03,1111122 
SCCF RECON,ioos:station:SCCF:56:1,2017-02-03T22:00:00Z,26.4645,-82.1044,1.71,8.68,1111122 
SCCF RECON,ioos:station:SCCF:56:1,2017-02-03T23:00:00Z,26.4645,-82.1044,1.74,8.55,1111122 
SCCF RECON,ioos:station:SCCF:56:1,2017-02-04T00:00:00Z,26.4645,-82.1044,1.69,8.95,1111122 
SCCF RECON,ioos:station:SCCF:56:1,2017-02-04T01:00:00Z,26.4645,-82.1044,1.6,8.62,1111122 
SCCF RECON,ioos:station:SCCF:56:1,2017-02-04T02:00:00Z,26.4645,-82.1044,1.48,8.05,1111122 
SCCF RECON,ioos:station:SCCF:56:1,2017-02-04T03:00:00Z,26.4645,-82.1044,1.379,7.23,1111122 
SCCF RECON,ioos:station:SCCF:56:1,2017-02-04T04:00:00Z,26.4645,-82.1044,1.28,6.69,1111122 
SCCF RECON,ioos:station:SCCF:56:1,2017-02-04T05:00:00Z,26.4645,-82.1044,1.19,6.24,1111122 
SCCF RECON,ioos:station:SCCF:56:1,2017-02-04T06:00:00Z,26.4645,-82.1044,1.12,6.0,1111122 
SCCF RECON,ioos:station:SCCF:56:1,2017-02-04T07:00:00Z,26.4645,-82.1044,1.09,5.26,1111122 
SCCF RECON,ioos:station:SCCF:56:1,2017-02-04T08:00:00Z,26.4645,-82.1044,1.16,5.61,1111122 
SCCF RECON,ioos:station:SCCF:56:1,2017-02-04T09:00:00Z,26.4645,-82.1044,1.26,6.13,1111122 
SCCF RECON,ioos:station:SCCF:56:1,2017-02-04T10:00:00Z,26.4645,-82.1044,1.35,6.72,1111122 
SCCF RECON,ioos:station:SCCF:56:1,2017-02-04T11:00:00Z,26.4645,-82.1044,1.419,7.34,1111122 
SCCF RECON,ioos:station:SCCF:56:1,2017-02-04T12:00:00Z,26.4645,-82.1044,1.46,7.55,1111122 
SCCF RECON,ioos:station:SCCF:56:1,2017-02-04T13:00:00Z,26.4645,-82.1044,1.448,6.48,1111122 
SCCF RECON,ioos:station:SCCF:56:1,2017-02-04T14:00:00Z,26.4645,-82.1044,1.4,6.87,1111122 
SCCF RECON,ioos:station:SCCF:56:1,2017-02-04T15:00:00Z,26.4645,-82.1044,1.325,6.33,1111122 
SCCF RECON,ioos:station:SCCF:56:1,2017-02-04T16:00:00Z,26.4645,-82.1044,1.291,6.11,1111122 
SCCF RECON,ioos:station:SCCF:56:1,2017-02-04T17:00:00Z,26.4645,-82.1044,1.279,6.18,1111122 
SCCF RECON,ioos:station:SCCF:56:1,2017-02-04T18:00:00Z,26.4645,-82.1044,1.28,6.42,1111122 
SCCF RECON,ioos:station:SCCF:56:1,2017-02-04T19:00:00Z,26.4645,-82.1044,1.348,9.16,1111122 
SCCF RECON,ioos:station:SCCF:56:1,2017-02-04T20:00:00Z,26.4645,-82.1044,1.429,9.7,1111122 
SCCF RECON,ioos:station:SCCF:56:1,2017-02-04T21:00:00Z,26.4645,-82.1044,1.53,9.68,1111122 
SCCF RECON,ioos:station:SCCF:56:1,2017-02-04T22:00:00Z,26.4645,-82.1044,1.62,9.38,1111122 
SCCF RECON,ioos:station:SCCF:56:1,2017-02-04T23:00:00Z,26.4645,-82.1044,1.69,9.12,1111122 
SCCF RECON,ioos:station:SCCF:56:1,2017-02-05T00:00:00Z,26.4645,-82.1044,1.71,8.67,1111122 
SCCF RECON,ioos:station:SCCF:56:1,2017-02-05T01:00:00Z,26.4645,-82.1044,1.69,8.37,1111122 
SCCF RECON,ioos:station:SCCF:56:1,2017-02-05T02:00:00Z,26.4645,-82.1044,1.61,8.68,1111122 
SCCF RECON,ioos:station:SCCF:56:1,2017-02-05T03:00:00Z,26.4645,-82.1044,1.51,8.4,1111122 
SCCF RECON,ioos:station:SCCF:56:1,2017-02-05T04:00:00Z,26.4645,-82.1044,1.41,7.7,1111122 
SCCF RECON,ioos:station:SCCF:56:1,2017-02-05T05:00:00Z,26.4645,-82.1044,1.3,6.87,1111122 
SCCF RECON,ioos:station:SCCF:56:1,2017-02-05T06:00:00Z,26.4645,-82.1044,1.2,6.29,1111122 
SCCF RECON,ioos:station:SCCF:56:1,2017-02-05T07:00:00Z,26.4645,-82.1044,1.112,5.82,1111122 
SCCF RECON,ioos:station:SCCF:56:1,2017-02-05T08:00:00Z,26.4645,-82.1044,1.06,5.08,1111122 
SCCF RECON,ioos:station:SCCF:56:1,2017-02-05T09:00:00Z,26.4645,-82.1044,1.096,5.25,1111122 
SCCF RECON,ioos:station:SCCF:56:1,2017-02-05T10:00:00Z,26.4645,-82.1044,1.23,5.52,1111122 
SCCF RECON,ioos:station:SCCF:56:1,2017-02-05T11:00:00Z,26.4645,-82.1044,1.36,5.05,1111122 
SCCF RECON,ioos:station:SCCF:56:1,2017-02-05T12:00:00Z,26.4645,-82.1044,1.46,6.06,1111122 
SCCF RECON,ioos:station:SCCF:56:1,2017-02-05T13:00:00Z,26.4645,-82.1044,1.53,6.43,1111122 
SCCF RECON,ioos:station:SCCF:56:1,2017-02-05T14:00:00Z,26.4645,-82.1044,1.55,7.3,1111122 
SCCF RECON,ioos:station:SCCF:56:1,2017-02-05T15:00:00Z,26.4645,-82.1044,1.55,6.86,1111122 
SCCF RECON,ioos:station:SCCF:56:1,2017-02-05T16:00:00Z,26.4645,-82.1044,1.524,6.81,1111122 
SCCF RECON,ioos:station:SCCF:56:1,2017-02-05T17:00:00Z,26.4645,-82.1044,1.48,7.05,1111122 
SCCF RECON,ioos:station:SCCF:56:1,2017-02-05T18:00:00Z,26.4645,-82.1044,1.45,7.13,1111122 
SCCF RECON,ioos:station:SCCF:56:1,2017-02-05T19:00:00Z,26.4645,-82.1044,1.41,6.96,1111122 
SCCF RECON,ioos:station:SCCF:56:1,2017-02-05T20:00:00Z,26.4645,-82.1044,1.43,7.08,1111122 
SCCF RECON,ioos:station:SCCF:56:1,2017-02-05T21:00:00Z,26.4645,-82.1044,1.48,10.82,1111122 
SCCF RECON,ioos:station:SCCF:56:1,2017-02-05T22:00:00Z,26.4645,-82.1044,1.57,10.79,1111122 
SCCF RECON,ioos:station:SCCF:56:1,2017-02-05T23:00:00Z,26.4645,-82.1044,1.675,10.58,1111122 
SCCF RECON,ioos:station:SCCF:56:1,2017-02-06T00:00:00Z,26.4645,-82.1044,1.71,9.42,1111122 
SCCF RECON,ioos:station:SCCF:56:1,2017-02-06T01:00:00Z,26.4645,-82.1044,1.74,8.27,1111122 
SCCF RECON,ioos:station:SCCF:56:1,2017-02-06T02:00:00Z,26.4645,-82.1044,1.7,8.02,1111122 
SCCF RECON,ioos:station:SCCF:56:1,2017-02-06T03:00:00Z,26.4645,-82.1044,1.593,8.15,1111122 
SCCF RECON,ioos:station:SCCF:56:1,2017-02-06T04:00:00Z,26.4645,-82.1044,1.48,7.58,1111122 
SCCF RECON,ioos:station:SCCF:56:1,2017-02-06T05:00:00Z,26.4645,-82.1044,1.368,6.66,1111122 
SCCF RECON,ioos:station:SCCF:56:1,2017-02-06T06:00:00Z,26.4645,-82.1044,1.26,5.99,1111122 
SCCF RECON,ioos:station:SCCF:56:1,2017-02-06T07:00:00Z,26.4645,-82.1044,1.14,5.59,1111122 
SCCF RECON,ioos:station:SCCF:56:1,2017-02-06T08:00:00Z,26.4645,-82.1044,1.02,4.95,1111122 
SCCF RECON,ioos:station:SCCF:56:1,2017-02-06T09:00:00Z,26.4645,-82.1044,0.95,4.7,1111122 
SCCF RECON,ioos:station:SCCF:56:1,2017-02-06T10:00:00Z,26.4645,-82.1044,0.99,4.76,1111122 
SCCF RECON,ioos:station:SCCF:56:1,2017-02-06T11:00:00Z,26.4645,-82.1044,1.13,7.01,1111122 
SCCF RECON,ioos:station:SCCF:56:1,2017-02-06T12:00:00Z,26.4645,-82.1044,1.28,7.21,1111122 
SCCF RECON,ioos:station:SCCF:56:1,2017-02-06T13:00:00Z,26.4645,-82.1044,1.38,7.41,1111122 
SCCF RECON,ioos:station:SCCF:56:1,2017-02-06T14:00:00Z,26.4645,-82.1044,1.472,7.82,1111122 
SCCF RECON,ioos:station:SCCF:56:1,2017-02-06T15:00:00Z,26.4645,-82.1044,1.54,8.37,1111122 
SCCF RECON,ioos:station:SCCF:56:1,2017-02-06T16:00:00Z,26.4645,-82.1044,1.568,8.51,1111122 
SCCF RECON,ioos:station:SCCF:56:1,2017-02-06T17:00:00Z,26.4645,-82.1044,1.56,8.14,1111122 
SCCF RECON,ioos:station:SCCF:56:1,2017-02-06T18:00:00Z,26.4645,-82.1044,1.54,8.49,1111122 
SCCF RECON,ioos:station:SCCF:56:1,2017-02-06T19:00:00Z,26.4645,-82.1044,1.48,8.53,1111122 
SCCF RECON,ioos:station:SCCF:56:1,2017-02-06T20:00:00Z,26.4645,-82.1044,1.43,8.33,1111122 
SCCF RECON,ioos:station:SCCF:56:1,2017-02-06T21:00:00Z,26.4645,-82.1044,1.488,9.86,1111122 
SCCF RECON,ioos:station:SCCF:56:1,2017-02-06T22:00:00Z,26.4645,-82.1044,1.59,9.09,1111122 
SCCF RECON,ioos:station:SCCF:56:1,2017-02-06T23:00:00Z,26.4645,-82.1044,1.69,8.74,1111122 
SCCF RECON,ioos:station:SCCF:56:1,2017-02-07T00:00:00Z,26.4645,-82.1044,1.76,8.21,1111122 
SCCF RECON,ioos:station:SCCF:56:1,2017-02-07T01:00:00Z,26.4645,-82.1044,1.799,8.08,1111122 
SCCF RECON,ioos:station:SCCF:56:1,2017-02-07T02:00:00Z,26.4645,-82.1044,1.82,7.87,1111122 
SCCF RECON,ioos:station:SCCF:56:1,2017-02-07T03:00:00Z,26.4645,-82.1044,1.809,7.41,1111122 
SCCF RECON,ioos:station:SCCF:56:1,2017-02-07T04:00:00Z,26.4645,-82.1044,1.723,7.54,1111122 
SCCF RECON,ioos:station:SCCF:56:1,2017-02-07T05:00:00Z,26.4645,-82.1044,1.61,7.67,1111122 
SCCF RECON,ioos:station:SCCF:56:1,2017-02-07T06:00:00Z,26.4645,-82.1044,1.47,6.86,1111122 
SCCF RECON,ioos:station:SCCF:56:1,2017-02-07T07:00:00Z,26.4645,-82.1044,1.328,6.25,1111122 
SCCF RECON,ioos:station:SCCF:56:1,2017-02-07T08:00:00Z,26.4645,-82.1044,1.197,5.74,1111122 
SCCF RECON,ioos:station:SCCF:56:1,2017-02-07T09:00:00Z,26.4645,-82.1044,1.071,5.27,1111122 
SCCF RECON,ioos:station:SCCF:56:1,2017-02-07T10:00:00Z,26.4645,-82.1044,0.99,4.74,1111122 
SCCF RECON,ioos:station:SCCF:56:1,2017-02-07T11:00:00Z,26.4645,-82.1044,1.02,4.52,1111122 
SCCF RECON,ioos:station:SCCF:56:1,2017-02-07T12:00:00Z,26.4645,-82.1044,1.18,6.41,1111122 
SCCF RECON,ioos:station:SCCF:56:1,2017-02-07T13:00:00Z,26.4645,-82.1044,1.31,6.68,1111122 
SCCF RECON,ioos:station:SCCF:56:1,2017-02-07T14:00:00Z,26.4645,-82.1044,1.43,7.2,1111122 
SCCF RECON,ioos:station:SCCF:56:1,2017-02-07T15:00:00Z,26.4645,-82.1044,1.518,7.58,1111122 
SCCF RECON,ioos:station:SCCF:56:1,2017-02-07T16:00:00Z,26.4645,-82.1044,1.57,7.96,1111122 
SCCF RECON,ioos:station:SCCF:56:1,2017-02-07T17:00:00Z,26.4645,-82.1044,1.571,7.8,1111122 
SCCF RECON,ioos:station:SCCF:56:1,2017-02-07T18:00:00Z,26.4645,-82.1044,1.53,7.95,1111122 
SCCF RECON,ioos:station:SCCF:56:1,2017-02-07T19:00:00Z,26.4645,-82.1044,1.452,7.86,1111122 
SCCF RECON,ioos:station:SCCF:56:1,2017-02-07T20:00:00Z,26.4645,-82.1044,1.395,7.66,1111122 
SCCF RECON,ioos:station:SCCF:56:1,2017-02-07T21:00:00Z,26.4645,-82.1044,1.35,7.66,1111122 
SCCF RECON,ioos:station:SCCF:56:1,2017-02-07T22:00:00Z,26.4645,-82.1044,1.37,8.06,1111122 
SCCF RECON,ioos:station:SCCF:56:1,2017-02-07T23:00:00Z,26.4645,-82.1044,1.472,9.09,1111122 
SCCF RECON,ioos:station:SCCF:56:1,2017-02-08T00:00:00Z,26.4645,-82.1044,1.58,8.29,1111122 
SCCF RECON,ioos:station:SCCF:56:1,2017-02-08T01:00:00Z,26.4645,-82.1044,1.67,7.61,1111122 
SCCF RECON,ioos:station:SCCF:56:1,2017-02-08T02:00:00Z,26.4645,-82.1044,1.732,7.21,1111122 
SCCF RECON,ioos:station:SCCF:56:1,2017-02-08T03:00:00Z,26.4645,-82.1044,1.82,7.27,1111122 
SCCF RECON,ioos:station:SCCF:56:1,2017-02-08T04:00:00Z,26.4645,-82.1044,1.84,6.87,1111122 
SCCF RECON,ioos:station:SCCF:56:1,2017-02-08T05:00:00Z,26.4645,-82.1044,1.774,7.27,1111122 
SCCF RECON,ioos:station:SCCF:56:1,2017-02-08T06:00:00Z,26.4645,-82.1044,1.61,6.75,1111122 
SCCF RECON,ioos:station:SCCF:56:1,2017-02-08T07:00:00Z,26.4645,-82.1044,1.461,6.33,1111122 
SCCF RECON,ioos:station:SCCF:56:1,2017-02-08T08:00:00Z,26.4645,-82.1044,1.35,5.85,1111122 
SCCF RECON,ioos:station:SCCF:56:1,2017-02-08T09:00:00Z,26.4645,-82.1044,1.24,5.51,1111122 
SCCF RECON,ioos:station:SCCF:56:1,2017-02-08T10:00:00Z,26.4645,-82.1044,1.111,4.97,1111122 
SCCF RECON,ioos:station:SCCF:56:1,2017-02-08T11:00:00Z,26.4645,-82.1044,1.03,4.44,1111122 
SCCF RECON,ioos:station:SCCF:56:1,2017-02-08T12:00:00Z,26.4645,-82.1044,1.02,3.91,1111122 
SCCF RECON,ioos:station:SCCF:56:1,2017-02-08T13:00:00Z,26.4645,-82.1044,1.219,3.91,1111122 
SCCF RECON,ioos:station:SCCF:56:1,2017-02-08T14:00:00Z,26.4645,-82.1044,1.44,4.84,1111122 
SCCF RECON,ioos:station:SCCF:56:1,2017-02-08T15:00:00Z,26.4645,-82.1044,1.579,6.86,1111122 
SCCF RECON,ioos:station:SCCF:56:1,2017-02-08T16:00:00Z,26.4645,-82.1044,1.69,7.74,1111122 
SCCF RECON,ioos:station:SCCF:56:1,2017-02-08T17:00:00Z,26.4645,-82.1044,1.68,7.55,1111122 
SCCF RECON,ioos:station:SCCF:56:1,2017-02-08T18:00:00Z,26.4645,-82.1044,1.64,7.25,1111122 
SCCF RECON,ioos:station:SCCF:56:1,2017-02-08T19:00:00Z,26.4645,-82.1044,1.59,7.41,1111122 
SCCF RECON,ioos:station:SCCF:56:1,2017-02-08T20:00:00Z,26.4645,-82.1044,1.53,7.64,1111122 
SCCF RECON,ioos:station:SCCF:56:1,2017-02-08T21:00:00Z,26.4645,-82.1044,1.453,7.45,1111122 
SCCF RECON,ioos:station:SCCF:56:1,2017-02-08T22:00:00Z,26.4645,-82.1044,1.4,7.25,1111122 
SCCF RECON,ioos:station:SCCF:56:1,2017-02-08T23:00:00Z,26.4645,-82.1044,1.399,7.52,1111122 
SCCF RECON,ioos:station:SCCF:56:1,2017-02-09T00:00:00Z,26.4645,-82.1044,1.486,7.65,1111122 
SCCF RECON,ioos:station:SCCF:56:1,2017-02-09T01:00:00Z,26.4645,-82.1044,1.629,8.38,1111122 
SCCF RECON,ioos:station:SCCF:56:1,2017-02-09T02:00:00Z,26.4645,-82.1044,1.746,7.52,1111122 
SCCF RECON,ioos:station:SCCF:56:1,2017-02-09T03:00:00Z,26.4645,-82.1044,1.824,7.29,1111122 
SCCF RECON,ioos:station:SCCF:56:1,2017-02-09T04:00:00Z,26.4645,-82.1044,1.869,7.05,1111122 
SCCF RECON,ioos:station:SCCF:56:1,2017-02-09T05:00:00Z,26.4645,-82.1044,1.84,6.9,1111122 
SCCF RECON,ioos:station:SCCF:56:1,2017-02-09T06:00:00Z,26.4645,-82.1044,1.74,6.77,1111122 
SCCF RECON,ioos:station:SCCF:56:1,2017-02-09T07:00:00Z,26.4645,-82.1044,1.58,6.43,1111122 
SCCF RECON,ioos:station:SCCF:56:1,2017-02-09T08:00:00Z,26.4645,-82.1044,1.414,5.74,1111122 
SCCF RECON,ioos:station:SCCF:56:1,2017-02-09T09:00:00Z,26.4645,-82.1044,1.28,5.17,1111122 
SCCF RECON,ioos:station:SCCF:56:1,2017-02-09T10:00:00Z,26.4645,-82.1044,1.14,4.54,1111122 
SCCF RECON,ioos:station:SCCF:56:1,2017-02-09T11:00:00Z,26.4645,-82.1044,1.02,4.09,1111122 
SCCF RECON,ioos:station:SCCF:56:1,2017-02-09T12:00:00Z,26.4645,-82.1044,0.964,3.63,1111122 
SCCF RECON,ioos:station:SCCF:56:1,2017-02-09T13:00:00Z,26.4645,-82.1044,1.06,3.63,1111122 
SCCF RECON,ioos:station:SCCF:56:1,2017-02-09T14:00:00Z,26.4645,-82.1044,1.239,5.58,1111122 
SCCF RECON,ioos:station:SCCF:56:1,2017-02-09T15:00:00Z,26.4645,-82.1044,1.38,6.42,1111122 
SCCF RECON,ioos:station:SCCF:56:1,2017-02-09T16:00:00Z,26.4645,-82.1044,1.5,7.24,1111122 
SCCF RECON,ioos:station:SCCF:56:1,2017-02-09T17:00:00Z,26.4645,-82.1044,1.612,8.19,1111122 
SCCF RECON,ioos:station:SCCF:56:1,2017-02-09T18:00:00Z,26.4645,-82.1044,1.67,8.39,1111122 
SCCF RECON,ioos:station:SCCF:56:1,2017-02-09T19:00:00Z,26.4645,-82.1044,1.621,7.78,1111122 
SCCF RECON,ioos:station:SCCF:56:1,2017-02-09T20:00:00Z,26.4645,-82.1044,1.51,7.78,1111122 
SCCF RECON,ioos:station:SCCF:56:1,2017-02-09T21:00:00Z,26.4645,-82.1044,1.45,7.73,1111122 
SCCF RECON,ioos:station:SCCF:56:1,2017-02-09T22:00:00Z,26.4645,-82.1044,1.395,7.6,1111122 
SCCF RECON,ioos:station:SCCF:56:1,2017-02-09T23:00:00Z,26.4645,-82.1044,1.34,7.29,1111122 
SCCF RECON,ioos:station:SCCF:56:1,2017-02-10T00:00:00Z,26.4645,-82.1044,1.33,7.26,1111122 
SCCF RECON,ioos:station:SCCF:56:1,2017-02-10T01:00:00Z,26.4645,-82.1044,1.4,7.19,1111122 
SCCF RECON,ioos:station:SCCF:56:1,2017-02-10T02:00:00Z,26.4645,-82.1044,1.55,6.54,1111122 
SCCF RECON,ioos:station:SCCF:56:1,2017-02-10T03:00:00Z,26.4645,-82.1044,1.7,6.61,1111122 
SCCF RECON,ioos:station:SCCF:56:1,2017-02-10T04:00:00Z,26.4645,-82.1044,1.827,6.44,1111122 
SCCF RECON,ioos:station:SCCF:56:1,2017-02-10T05:00:00Z,26.4645,-82.1044,1.83,6.62,1111122 
SCCF RECON,ioos:station:SCCF:56:1,2017-02-10T06:00:00Z,26.4645,-82.1044,1.784,6.4,1111122 
SCCF RECON,ioos:station:SCCF:56:1,2017-02-10T07:00:00Z,26.4645,-82.1044,1.636,6.32,1111122 
SCCF RECON,ioos:station:SCCF:56:1,2017-02-10T08:00:00Z,26.4645,-82.1044,1.476,5.8,1111122 
SCCF RECON,ioos:station:SCCF:56:1,2017-02-10T09:00:00Z,26.4645,-82.1044,1.338,5.38,1111122 
SCCF RECON,ioos:station:SCCF:56:1,2017-02-10T10:00:00Z,26.4645,-82.1044,1.201,5.11,1111122 
SCCF RECON,ioos:station:SCCF:56:1,2017-02-10T11:00:00Z,26.4645,-82.1044,1.05,4.74,1111122 
SCCF RECON,ioos:station:SCCF:56:1,2017-02-10T12:00:00Z,26.4645,-82.1044,0.934,4.64,1111122 
SCCF RECON,ioos:station:SCCF:56:1,2017-02-10T13:00:00Z,26.4645,-82.1044,0.848,4.52,1111122 
SCCF RECON,ioos:station:SCCF:56:1,2017-02-10T14:00:00Z,26.4645,-82.1044,0.874,4.7,1111122 
SCCF RECON,ioos:station:SCCF:56:1,2017-02-10T15:00:00Z,26.4645,-82.1044,1.105,7.57,1111122 
SCCF RECON,ioos:station:SCCF:56:1,2017-02-10T16:00:00Z,26.4645,-82.1044,1.26,7.75,1111122 
SCCF RECON,ioos:station:SCCF:56:1,2017-02-10T17:00:00Z,26.4645,-82.1044,1.369,8.87,1111122 
SCCF RECON,ioos:station:SCCF:56:1,2017-02-10T18:00:00Z,26.4645,-82.1044,1.466,8.78,1111122 
SCCF RECON,ioos:station:SCCF:56:1,2017-02-10T19:00:00Z,26.4645,-82.1044,1.524,8.47,1111122 
SCCF RECON,ioos:station:SCCF:56:1,2017-02-10T20:00:00Z,26.4645,-82.1044,1.5,8.29,1111122 
SCCF RECON,ioos:station:SCCF:56:1,2017-02-10T21:00:00Z,26.4645,-82.1044,1.41,8.68,1111122 
SCCF RECON,ioos:station:SCCF:56:1,2017-02-10T22:00:00Z,26.4645,-82.1044,1.336,8.2,1111122 
SCCF RECON,ioos:station:SCCF:56:1,2017-02-10T23:00:00Z,26.4645,-82.1044,1.33,8.45,1111122 
SCCF RECON,ioos:station:SCCF:56:1,2017-02-11T00:00:00Z,26.4645,-82.1044,1.305,8.19,1111122 
SCCF RECON,ioos:station:SCCF:56:1,2017-02-11T01:00:00Z,26.4645,-82.1044,1.361,8.53,1111122 
SCCF RECON,ioos:station:SCCF:56:1,2017-02-11T02:00:00Z,26.4645,-82.1044,1.504,7.98,1111122 
SCCF RECON,ioos:station:SCCF:56:1,2017-02-11T03:00:00Z,26.4645,-82.1044,1.63,7.62,1111122 
SCCF RECON,ioos:station:SCCF:56:1,2017-02-11T04:00:00Z,26.4645,-82.1044,1.718,7.06,1111122 
SCCF RECON,ioos:station:SCCF:56:1,2017-02-11T05:00:00Z,26.4645,-82.1044,1.79,7.48,1111122 
SCCF RECON,ioos:station:SCCF:56:1,2017-02-11T06:00:00Z,26.4645,-82.1044,1.819,7.46,1111122 
SCCF RECON,ioos:station:SCCF:56:1,2017-02-11T07:00:00Z,26.4645,-82.1044,1.746,7.28,1111122 
SCCF RECON,ioos:station:SCCF:56:1,2017-02-11T08:00:00Z,26.4645,-82.1044,1.59,7.16,1111122 
SCCF RECON,ioos:station:SCCF:56:1,2017-02-11T09:00:00Z,26.4645,-82.1044,1.441,6.73,1111122 
SCCF RECON,ioos:station:SCCF:56:1,2017-02-11T10:00:00Z,26.4645,-82.1044,1.31,6.2,1111122 
SCCF RECON,ioos:station:SCCF:56:1,2017-02-11T11:00:00Z,26.4645,-82.1044,1.196,5.67,1111122 
SCCF RECON,ioos:station:SCCF:56:1,2017-02-11T12:00:00Z,26.4645,-82.1044,1.09,5.22,1111122 
SCCF RECON,ioos:station:SCCF:56:1,2017-02-11T13:00:00Z,26.4645,-82.1044,1.018,4.69,1111122 
SCCF RECON,ioos:station:SCCF:56:1,2017-02-11T14:00:00Z,26.4645,-82.1044,1.08,4.79,1111122 
SCCF RECON,ioos:station:SCCF:56:1,2017-02-11T15:00:00Z,26.4645,-82.1044,1.27,7.48,1111122 
SCCF RECON,ioos:station:SCCF:56:1,2017-02-11T16:00:00Z,26.4645,-82.1044,1.418,8.18,1111122 
SCCF RECON,ioos:station:SCCF:56:1,2017-02-11T17:00:00Z,26.4645,-82.1044,1.527,8.96,1111122 
SCCF RECON,ioos:station:SCCF:56:1,2017-02-11T18:00:00Z,26.4645,-82.1044,1.61,8.94,1111122 
SCCF RECON,ioos:station:SCCF:56:1,2017-02-11T19:00:00Z,26.4645,-82.1044,1.64,8.77,1111122 
SCCF RECON,ioos:station:SCCF:56:1,2017-02-11T20:00:00Z,26.4645,-82.1044,1.6,8.69,1111122 